Location: Asheville, NC
(35.6000°N, 82.5500°W)
Time: 08:56:30
(UTC-05:00)

SEEDS - Pass Details

Date: 05 January 2018
Orbit: 587 x 606 km, 97.5° (Epoch: 18 January)

Event Time Altitude Azimuth Distance (km) Brightness Sun altitude
Rises 19:17:25 0° 175° (S) 2,843 ? -21.0°
Reaches altitude 10° 19:19:37 10° 179° (S) 1,944 ? -21.4°
Maximum altitude 19:23:47 60° 259° (W) 693 ? -22.3°
Drops below altitude 10° 19:27:59 10° 340° (NNW) 1,953 ? -23.1°
Sets 19:30:12 0° 344° (NNW) 2,858 ? -23.5°
